LA5PPA-1 Weather Reports


Display with metric or nautical units.
time (UTC)temp
F
wind
direction
speed
MPH
gust
MPH
rain 1hr
in
rain 24hr
in
rain mn
in
humidity
%
barometer
mb
20260504220838 24 315 4.0 6.0 0.00 0.00 0.00 76 1010.8
20260504220559 24 281 0.0 6.0 0.00 0.00 0.00 76 1010.8
20260504220158 24 302 4.0 7.0 0.00 0.00 0.00 76 1010.7
20260504215658 24 310 2.0 5.0 0.00 0.00 0.00 77 1010.7
20260504215459 24 274 0.0 5.0 0.00 0.00 0.00 77 1010.6
20260504215158 24 316 0.0 7.0 0.00 0.00 0.00 77 1010.6
20260504214658 24 292 0.0 5.0 0.00 0.00 0.00 77 1010.4
20260504214359 24 284 1.0 13.0 0.00 0.00 0.00 77 1010.4
20260504214158 24 281 0.0 13.0 0.00 0.00 0.00 76 1010.3
20260504213658 24 315 2.0 10.0 0.00 0.00 0.00 76 1010.2
20260504213259 24 15 2.0 8.0 0.00 0.00 0.00 76 1010.2
20260504213158 24 298 1.0 7.0 0.00 0.00 0.00 76 1010.2
20260504212658 25 319 4.0 9.0 0.00 0.00 0.00 76 1010.2
20260504212158 25 331 5.0 8.0 0.00 0.00 0.00 77 1010.2
20260504211658 25 300 2.0 15.0 0.00 0.00 0.00 78 1010.2
20260504211158 25 305 15.0 15.0 0.00 0.00 0.00 77 1010.1
20260504211059 25 309 8.0 8.0 0.00 0.00 0.00 78 1010.1
20260504210658 25 295 2.0 9.0 0.00 0.00 0.00 79 1010.1
20260504210158 25 277 5.0 12.0 0.00 0.00 0.00 78 1010.0
20260504210000 25 317 2.0 7.0 0.00 0.00 0.00 78 1010.0
20260504205658 26 319 3.0 9.0 0.00 0.00 0.00 78 1010.0
20260504205158 26 299 3.0 12.0 0.00 0.00 0.00 77 1010.0
20260504204859 26 289 7.0 12.0 0.00 0.00 0.00 78 1010.0
20260504204658 26 310 5.0 12.0 0.00 0.00 0.00 76 1010.0
20260504204158 26 326 4.0 9.0 0.00 0.00 0.00 78 1009.9
20260504203759 26 345 5.0 13.0 0.00 0.00 0.00 78 1009.9
20260504203658 26 330 3.0 13.0 0.00 0.00 0.00 78 1009.9
20260504203158 26 309 7.0 12.0 0.00 0.00 0.00 79 1009.7
20260504202658 26 317 4.0 11.0 0.00 0.00 0.00 80 1009.7
20260504202158 27 303 7.0 10.0 0.00 0.00 0.00 79 1009.6
20260504201658 27 337 3.0 9.0 0.00 0.00 0.00 79 1009.4
20260504201559 27 309 5.0 9.0 0.00 0.00 0.00 80 1009.6
20260504201158 27 275 3.0 10.0 0.00 0.00 0.00 81 1009.6
20260504200658 27 326 3.0 8.0 0.00 0.00 0.00 82 1009.3
20260504200459 27 291 4.0 8.0 0.00 0.00 0.00 82 1009.3
20260504200158 27 306 4.0 9.0 0.00 0.00 0.00 82 1009.2
20260504195658 28 307 4.0 9.0 0.00 0.00 0.00 82 1009.3
20260504195359 28 333 4.0 9.0 0.00 0.00 0.00 82 1009.3
20260504195158 28 334 3.0 9.0 0.00 0.00 0.00 83 1009.3
20260504194658 28 296 2.0 7.0 0.00 0.00 0.00 83 1009.2
20260504194259 28 286 4.0 10.0 0.00 0.00 0.00 82 1009.3
20260504194158 28 307 4.0 10.0 0.00 0.00 0.00 82 1009.3
20260504193658 28 277 5.0 7.0 0.00 0.00 0.00 83 1009.2
20260504193158 28 307 2.0 9.0 0.00 0.00 0.00 83 1009.2
20260504192658 28 284 5.0 9.0 0.00 0.00 0.00 83 1009.1
20260504192158 28 320 6.0 11.0 0.00 0.00 0.00 81 1009.0
20260504192059 29 320 5.0 11.0 0.00 0.00 0.00 81 1009.0
20260504191658 29 322 4.0 7.0 0.00 0.00 0.00 84 1009.0
20260504191158 29 293 1.0 6.0 0.00 0.00 0.00 84 1008.9
20260504190959 29 313 3.0 8.0 0.00 0.00 0.00 84 1008.9
20260504190658 29 306 2.0 8.0 0.00 0.00 0.00 84 1008.9
20260504190158 30 343 2.0 8.0 0.00 0.00 0.00 82 1008.9
20260504185859 30 330 4.0 8.0 0.00 0.00 0.00 82 1008.9
20260504185658 30 327 5.0 6.0 0.00 0.00 0.00 82 1008.8
20260504185158 31 330 2.0 6.0 0.00 0.00 0.00 81 1008.7
20260504184759 32 319 3.0 7.0 0.00 0.00 0.00 81 1008.7
20260504184658 32 310 1.0 7.0 0.00 0.00 0.00 81 1008.7
20260504184158 31 323 3.0 5.0 0.00 0.00 0.00 86 1008.7
20260504183658 31 320 3.0 4.0 0.00 0.00 0.00 85 1008.5
20260504183158 32 316 2.0 7.0 0.00 0.00 0.00 85 1008.5
20260504182658 32 306 2.0 4.0 0.00 0.00 0.00 84 1008.5
20260504182559 32 302 3.0 4.0 0.00 0.00 0.00 85 1008.5
20260504182158 32 310 1.0 6.0 0.00 0.00 0.00 85 1008.5
20260504181658 32 298 0.0 5.0 0.00 0.00 0.00 87 1008.4
20260504181459 32 309 1.0 5.0 0.00 0.00 0.00 87 1008.4
20260504181158 31 315 1.0 7.0 0.00 0.00 0.00 87 1008.4
20260504180658 31 307 2.0 7.0 0.00 0.00 0.00 86 1008.4
20260504180359 31 310 2.0 4.0 0.00 0.00 0.00 87 1008.4
20260504180158 31 312 1.0 9.0 0.00 0.00 0.00 87 1008.3
20260504175658 30 340 3.0 7.0 0.00 0.00 0.00 89 1008.3
20260504175259 30 22 1.0 7.0 0.00 0.00 0.00 88 1008.2
20260504175158 30 312 5.0 7.0 0.00 0.00 0.00 89 1008.2
20260504174658 30 337 2.0 5.0 0.00 0.00 0.00 91 1008.2
20260504174158 30 322 3.0 8.0 0.00 0.00 0.00 92 1008.2
20260504173658 29 331 2.0 7.0 0.00 0.00 0.00 92 1008.2
20260504173158 29 319 5.0 9.0 0.00 0.00 0.00 91 1008.2
20260504173059 29 313 7.0 9.0 0.00 0.00 0.00 91 1008.1
20260504172658 30 337 3.0 9.0 0.00 0.00 0.00 90 1008.2
20260504172158 30 286 4.0 8.0 0.00 0.00 0.00 90 1008.0
20260504171959 31 322 1.0 6.0 0.00 0.00 0.00 91 1008.0
20260504171658 31 303 1.0 4.0 0.00 0.00 0.00 91 1007.9
20260504171158 31 295 2.0 5.0 0.00 0.00 0.00 90 1007.9
20260504170859 31 338 4.0 5.0 0.00 0.00 0.00 90 1008.0
20260504170658 31 326 4.0 4.0 0.00 0.00 0.00 90 1008.0
20260504170158 31 334 3.0 6.0 0.00 0.00 0.00 90 1008.0
20260504160259 32 284 0.0 4.0 0.00 0.00 0.00 88 1007.8
20260504160158 32 317 4.0 5.0 0.00 0.00 0.00 88 1007.8
20260504150759 35 306 4.0 11.0 0.00 0.00 0.00 80 1007.9
20260504150658 35 322 4.0 11.0 0.00 0.00 0.00 79 1007.9
20260504150158 35 299 4.0 7.0 0.00 0.00 0.00 80 1007.9
20260504141259 37 300 7.0 12.0 0.00 0.00 0.00 72 1008.3
20260504141158 37 305 4.0 12.0 0.00 0.00 0.00 73 1008.4
20260504140658 36 331 4.0 13.0 0.00 0.00 0.00 73 1008.4
20260504140158 36 253 10.0 15.0 0.00 0.00 0.00 73 1008.4
20260504130658 40 324 7.0 14.0 0.00 0.00 0.00 54 1008.8
20260504130158 41 293 7.0 13.0 0.00 0.00 0.00 53 1008.7
20260504120159 40 272 4.0 11.0 0.00 0.00 0.00 48 1008.8
20260504110659 40 293 8.0 12.0 0.00 0.00 0.00 45 1008.9
20260504110600 40 299 5.0 12.0 0.00 0.00 0.00 44 1009.0
20260504110159 40 334 3.0 14.0 0.00 0.00 0.00 44 1009.0
20260504100159 39 310 10.0 12.0 0.00 0.00 0.00 46 1009.0
20260504081659 37 277 16.0 24.0 0.00 0.00 0.00 50 1008.8
20260504081159 37 289 7.0 19.0 0.00 0.00 0.00 51 1008.7
20260504081000 37 310 9.0 16.0 0.00 0.00 0.00 51 1008.7
20260504080659 37 306 8.0 22.0 0.00 0.00 0.00 51 1008.5
20260504080159 37 295 8.0 18.0 0.00 0.00 0.00 51 1008.5
20260504070400 35 327 5.0 9.0 0.00 0.00 0.00 62 1008.4
20260504070159 35 323 4.0 9.0 0.00 0.00 0.00 62 1008.4
20260504060159 32 315 7.0 9.0 0.00 0.00 0.00 67 1008.5
20260504050659 31 305 2.0 5.0 0.00 0.00 0.00 63 1008.2
20260504050300 31 285 0.0 4.0 0.00 0.00 0.00 63 1008.2
20260504050159 31 285 0.0 4.0 0.00 0.00 0.00 63 1008.2
20260504045659 31 295 2.0 6.0 0.00 0.00 0.00 63 1008.2
20260504045159 31 309 1.0 6.0 0.00 0.00 0.00 62 1008.3
20260504044659 31 317 2.0 5.0 0.00 0.00 0.00 61 1008.2
20260504044159 31 316 4.0 6.0 0.00 0.00 0.00 60 1008.0
20260504044100 31 333 3.0 6.0 0.00 0.00 0.00 60 1008.2
20260504043659 31 309 3.0 6.0 0.00 0.00 0.00 60 1008.2
20260504043159 31 292 0.0 7.0 0.00 0.00 0.00 60 1008.1
20260504043000 31 333 4.0 7.0 0.00 0.00 0.00 59 1008.1
20260504042659 31 313 5.0 5.0 0.00 0.00 0.00 59 1008.1
20260504042159 31 309 1.0 7.0 0.00 0.00 0.00 58 1008.2
20260504041901 31 331 0.0 7.0 0.00 0.00 0.00 57 1008.2
20260504041659 31 322 0.0 6.0 0.00 0.00 0.00 57 1008.2
20260504041159 31 316 5.0 8.0 0.00 0.00 0.00 57 1008.2
20260504040800 31 307 0.0 6.0 0.00 0.00 0.00 57 1008.3
20260504040659 31 310 0.0 6.0 0.00 0.00 0.00 56 1008.2
20260504040159 31 329 0.0 8.0 0.00 0.00 0.00 56 1008.2
20260504035659 31 309 1.0 10.0 0.00 0.00 0.00 56 1008.3
20260504035159 31 285 4.0 13.0 0.00 0.00 0.00 56 1008.3
20260504034659 31 343 3.0 10.0 0.00 0.00 0.00 57 1008.3
20260504034600 31 306 10.0 10.0 0.00 0.00 0.00 57 1008.3
20260504034159 31 312 7.0 9.0 0.00 0.00 0.00 59 1008.3
20260504033659 31 317 2.0 10.0 0.00 0.00 0.00 60 1008.2
20260504033500 31 303 4.0 10.0 0.00 0.00 0.00 60 1008.2
20260504033159 31 309 4.0 9.0 0.00 0.00 0.00 62 1008.2
20260504032659 31 326 3.0 6.0 0.00 0.00 0.00 65 1008.2
20260504032401 31 295 2.0 6.0 0.00 0.00 0.00 65 1008.2
20260504032159 31 309 2.0 8.0 0.00 0.00 0.00 66 1008.2
20260504031659 31 277 8.0 8.0 0.00 0.00 0.00 66 1008.2
20260504031301 31 277 1.0 11.0 0.00 0.00 0.00 66 1008.2
20260504031159 31 305 2.0 11.0 0.00 0.00 0.00 67 1008.2
20260504030659 31 315 2.0 8.0 0.00 0.00 0.00 68 1008.2
20260504030159 31 286 4.0 6.0 0.00 0.00 0.00 69 1008.4
20260504025659 31 298 3.0 7.0 0.00 0.00 0.00 73 1008.4
20260504025159 31 261 6.0 7.0 0.00 0.00 0.00 73 1008.5
20260504025101 31 285 6.0 6.0 0.00 0.00 0.00 73 1008.4
20260504024659 31 285 1.0 6.0 0.00 0.00 0.00 73 1008.5
20260504024200 31 299 0.0 4.0 0.00 0.00 0.00 73 1008.7
20260504024002 31 281 0.0 4.0 0.00 0.00 0.00 73 1008.7
20260504023659 31 281 3.0 4.0 0.00 0.00 0.00 73 1008.7
20260504023159 31 309 0.0 4.0 0.00 0.00 0.00 73 1008.7
20260504022901 31 309 1.0 5.0 0.00 0.00 0.00 73 1008.7
20260504022700 31 292 3.0 5.0 0.00 0.00 0.00 73 1008.7
20260504022159 31 330 0.0 6.0 0.00 0.00 0.00 74 1008.8
20260504021801 31 298 3.0 6.0 0.00 0.00 0.00 74 1008.8
20260504021700 31 281 6.0 6.0 0.00 0.00 0.00 74 1008.8
20260504021200 31 310 2.0 6.0 0.00 0.00 0.00 74 1008.9
20260504020659 31 299 0.0 4.0 0.00 0.00 0.00 75 1008.8
20260504020200 31 310 1.0 8.0 0.00 0.00 0.00 75 1008.8
20260504015700 31 300 2.0 6.0 0.00 0.00 0.00 76 1008.8
20260504015601 31 295 3.0 4.0 0.00 0.00 0.00 76 1008.8
20260504015200 31 322 2.0 5.0 0.00 0.00 0.00 76 1008.8
20260504014700 31 310 2.0 4.0 0.00 0.00 0.00 76 1008.8
20260504014501 31 300 2.0 5.0 0.00 0.00 0.00 76 1008.8
20260504014200 31 296 1.0 8.0 0.00 0.00 0.00 76 1008.7
20260504013700 31 298 1.0 7.0 0.00 0.00 0.00 76 1008.8
20260504013401 31 315 5.0 7.0 0.00 0.00 0.00 76 1008.8
20260504013200 31 295 2.0 6.0 0.00 0.00 0.00 76 1008.9
20260504012700 31 316 2.0 7.0 0.00 0.00 0.00 76 1008.8
20260504012301 31 310 3.0 7.0 0.00 0.00 0.00 77 1008.9
20260504012200 31 305 3.0 7.0 0.00 0.00 0.00 77 1008.9
20260504011700 30 320 6.0 6.0 0.00 0.00 0.00 77 1008.9
20260504011200 30 300 1.0 3.0 0.00 0.00 0.00 76 1008.9
20260504010700 30 306 0.0 2.0 0.00 0.00 0.00 75 1008.9
20260504010200 30 278 1.0 2.0 0.00 0.00 0.00 75 1008.9
20260504010101 30 279 1.0 2.0 0.00 0.00 0.00 75 1009.0
20260504005700 30 289 1.0 3.0 0.00 0.00 0.00 75 1009.1
20260504005200 30 306 2.0 2.0 0.00 0.00 0.00 75 1009.1
20260504005001 30 267 0.0 3.0 0.00 0.00 0.00 75 1009.1
20260504004700 30 305 1.0 3.0 0.00 0.00 0.00 76 1009.2
20260504004200 29 254 1.0 2.0 0.00 0.00 0.00 76 1009.2
20260504003901 29 302 2.0 3.0 0.00 0.00 0.00 76 1009.2
20260504003700 29 293 2.0 3.0 0.00 0.00 0.00 76 1009.3
20260504003200 29 279 1.0 3.0 0.00 0.00 0.00 75 1009.3
20260504002801 29 275 0.0 2.0 0.00 0.00 0.00 75 1009.3
20260504002700 29 275 0.0 2.0 0.00 0.00 0.00 75 1009.3
20260504002200 29 302 0.0 0.0 0.00 0.00 0.00 75 1009.4
20260504001700 29 302 0.0 0.0 0.00 0.00 0.00 74 1009.4
20260504001200 29 302 0.0 0.0 0.00 0.00 0.00 74 1009.4
20260504000700 29 302 0.0 0.0 0.00 0.00 0.00 73 1009.4
20260504000601 29 302 0.0 0.0 0.00 0.00 0.00 73 1009.6
20260504000200 29 302 0.0 0.0 0.00 0.00 0.00 72 1009.6
20260503235700 29 302 0.0 0.0 0.00 0.00 0.00 72 1009.6
20260503235501 30 302 0.0 0.0 0.00 0.00 0.00 71 1009.7
20260503235200 30 302 0.0 0.0 0.00 0.00 0.00 71 1009.7
20260503234700 30 302 0.0 0.0 0.00 0.00 0.00 71 1009.8
20260503234401 31 302 0.0 0.0 0.00 0.00 0.00 70 1009.8
20260503234200 31 302 0.0 0.0 0.00 0.00 0.00 70 1009.8
20260503233700 32 302 0.0 0.0 0.00 0.00 0.00 69 1009.8
20260503233301 32 302 0.0 3.0 0.00 0.00 0.00 70 1009.8
20260503233200 32 302 0.0 4.0 0.00 0.00 0.00 70 1009.8
20260503232700 31 322 4.0 4.0 0.00 0.00 0.00 71 1009.9
20260503232200 31 274 0.0 0.0 0.00 0.00 0.00 72 1009.8
20260503231700 30 274 0.0 0.0 0.00 0.00 0.00 73 1009.9
20260503231200 30 274 0.0 2.0 0.00 0.00 0.00 74 1009.9
20260503231101 29 274 0.0 2.0 0.00 0.00 0.00 74 1009.9
20260503230700 29 92 0.0 2.0 0.00 0.00 0.00 73 1009.9
20260503230200 30 116 2.0 3.0 0.00 0.00 0.00 72 1010.0
20260503230001 30 113 2.0 4.0 0.00 0.00 0.00 72 1009.9
20260503225700 30 115 3.0 4.0 0.00 0.00 0.00 72 1009.9
20260503225200 30 102 0.0 2.0 0.00 0.00 0.00 71 1009.9
20260503224901 30 299 0.0 0.0 0.00 0.00 0.00 71 1010.0
20260503224700 30 299 0.0 0.0 0.00 0.00 0.00 71 1009.9
20260503224200 31 299 0.0 0.0 0.00 0.00 0.00 70 1009.9
20260503223801 31 299 0.0 0.0 0.00 0.00 0.00 71 1010.0
20260503223700 31 299 0.0 2.0 0.00 0.00 0.00 71 1010.0
20260503223200 30 286 2.0 2.0 0.00 0.00 0.00 71 1010.0
20260503222700 30 120 1.0 4.0 0.00 0.00 0.00 71 1010.0
20260503222200 30 112 1.0 2.0 0.00 0.00 0.00 71 1010.1
20260503221700 30 129 1.0 3.0 0.00 0.00 0.00 71 1010.0
20260503221601 30 111 2.0 3.0 0.00 0.00 0.00 71 1010.1
20260503221200 30 133 3.0 3.0 0.00 0.00 0.00 72 1010.2